Regional Weather Roundup
Issued by NWS

Home | Current Version | Previous Version | Text Only | Print | Product List | Glossary Off
Versions: 1 2 3 4 5 6 7 8 9 10 11 12 13 14 15 16 17 18 19 20 21 22 23 24 25 26 27 28 29 30 31 32 33 34 35 36 37 38 39 40 41 42 43 44 45 46 47 48 49 50

000
ASUS43 KDMX 231306
RWRIA

WEATHER ROUNDUP FOR IOWA
NATIONAL WEATHER SERVICE DES MOINES IA
800 AM CDT MON OCT 23 2017

NOTE: "FAIR" INDICATES FEW OR NO CLOUDS BELOW 12,000 FEET WITH NO
SIGNIFICANT WEATHER AND/OR OBSTRUCTIONS TO VISIBILITY.

* - THESE STATIONS ARE NOT NWS STATIONS...THUS NOT UNDER NWS
QUALITY CONTROL.  THEY ALSO DO NOT REPORT WEATHER SUCH
AS PRECIPITATION OR FOG.

IAZ001>003-012>014-020>022-031>034-043>046-231400-
   NORTHWEST IOWA

CITY           SKY/WX    TMP DP  RH WIND       PRES   REMARKS
CHEROKEE *     CLOUDY    53  39  58 NW12G23   29.91R
DENISON *      MOCLDY    52  37  58 NW15G21   29.93R
LE MARS *      CLOUDY    54  43  66 NW10G17   29.92S
ORANGE CITY *  LGT RAIN  54  45  71 NW13G21   29.91S
SHELDON *      CLOUDY    55  39  54 NW15G23   29.89S
SIOUX CITY     CLOUDY    54  44  69 NW17G29   29.92R
SPENCER        CLOUDY    52  40  63 NW14      29.88R
STORM LAKE *   PTCLDY    50  37  62 NW12G21   29.91R
$$

IAZ055>058-069>071-079>083-090>094-231400-
   SOUTHWEST IOWA

CITY           SKY/WX    TMP DP  RH WIND       PRES   REMARKS
ATLANTIC *     PTCLDY    45  37  76 CALM      29.90R
AUDUBON *      MOCLDY    50  37  62 W6        29.90R
CLARINDA *     CLEAR     39  37  93 CALM      29.92R
COUNCIL BLFS * CLOUDY    54  37  54 N18G25    29.91R
CRESTON *      MIX PCPN  41  37  87 W8        29.90R
HARLAN  *      CLOUDY    48  37  66 NW13      29.94R
LAMONI         CLOUDY    43  39  86 SW10      29.87F
RED OAK *      PTCLDY    41  37  87 CALM      29.91R
SHENANDOAH *   CLEAR     43  37  81 CALM      29.92R
$$

IAZ047>049-059>061-072>074-084-231400-
   CENTRAL IOWA

CITY           SKY/WX    TMP DP  RH WIND       PRES   REMARKS
AMES           PTCLDY    40  40 100 CALM      29.86R
ANKENY *       PTCLDY    45  39  81 CALM      29.88R
BOONE *        CLOUDY    45  37  76 SW8       29.85R
CHARITON *     CLOUDY    46  39  76 SW8       29.86S
DES MOINES     MOCLDY    45  38  76 SW5       29.87R
GRINNELL*      PTCLDY    44  38  81 S8        29.87F
KNOXVILLE *    CLEAR     46  37  71 SW8       29.85R
MARSHALLTOWN   CLEAR     41  39  93 SW5       29.84F
NEWTON *       CLEAR     43  37  81 S5        29.86F
PELLA *        CLEAR     43  38  83 S5        29.87S
PERRY *          N/A     46  40  82 W6        29.86S
$$

IAZ004>006-015-016-023>025-035-036-231400-
   NORTH CENTRAL IOWA

CITY           SKY/WX    TMP DP  RH WIND       PRES   REMARKS
ALGONA *       CLOUDY    46  37  71 W10       29.85R
CLARION *      CLEAR     43  39  87 SW7       29.84R
ESTHERVILLE    CLOUDY    50  39  66 W8        29.84S
FORT DODGE *   PTCLDY    44  37  76 W5        29.85S
MASON CITY     CLEAR     44  37  76 SW8       29.84R
FOREST CITY *    N/A     43  37  81 W6        29.82S
WEBSTER CITY * CLEAR     43  36  75 SW5       29.84R
IOWA FALLS *     N/A     42  38  88 CALM      29.86R
$$

IAZ007>011-017>019-026>030-037>042-050>054-066-231400-
   NORTHEAST IOWA

CITY           SKY/WX    TMP DP  RH WIND       PRES   REMARKS
CEDAR RAPIDS   CLOUDY    42  41  96 S5        29.90S
CHARLES CITY * CLEAR     45  39  81 SW8       29.83S
CLINTON *      CLOUDY    43  43 100 CALM      29.89F FOG
DECORAH *      CLEAR     43  39  87 S6        29.83F
DUBUQUE        CLOUDY    42  40  92 CALM      29.89F
MONTICELLO *   CLOUDY    41  41 100 CALM      29.90S
OELWEIN *      PTCLDY    45  43  93 S8        29.85F
WATERLOO       CLEAR     42  39  89 SE6       29.84F
$$

IAZ064-065-067-068-078-231400-
   EAST CENTRAL IOWA

CITY           SKY/WX    TMP DP  RH WIND       PRES   REMARKS
DAVENPORT      CLOUDY    45  44  97 NW7       29.90F
IOWA CITY      CLOUDY    43  42  97 CALM      29.93F
MUSCATINE *    CLOUDY    43  41  93 NW5       29.90F FOG
QUAD CITIES    FOG       47  46  97 S3        29.89F VSB 1/4
$$

IAZ062-063-075>077-085>089-095>099-231400-
   SOUTHEAST IOWA

CITY           SKY/WX    TMP DP  RH WIND       PRES   REMARKS
BURLINGTON     CLOUDY    45  44  97 S5        29.93R
FAIRFIELD *    CLOUDY    46  41  81 S5        29.90F
FORT MADISON * CLOUDY    46  45  93 SW5       29.93R
KEOKUK *       CLOUDY    46  45  93 SE5       29.94R
OSKALOOSA *      N/A     41  40  95 SE12      29.90R
OTTUMWA        CLOUDY    45  41  86 SE10      29.90R
WASHINGTON *   CLOUDY    45  43  93 W3        29.91F
$$

ABBREVIATIONS USED IN REMARKS
   TC - TEMPERATURES IN CELSIUS
  WCI - WIND CHILL INDEX
   HX - HEAT INDEX
  VSB - VISIBILITY
$$





USA.gov is the U.S. government's official web portal to all federal, state and local government web resources and services.